Weather in Sbega

Russia / Zabaykalsky Krai     53°18′59″N   118°30′56″E
temp.,
°C
wind,
m/s
gust,
m/s
humid.,
%
clouds,
%
prec.,
mm/h
press.,
hPa
HPBL,
m
29 june, wed
wed2900:00+18nw11725 0.0 100211
03:00+16nw11795 0.0 100311
06:00+17wnw00795 0.0 100412
09:00+25n005021 0.0 1004372
12:00+32e01315 0.0 10021644
15:00+33ene1130100 0.0 10012314
18:00+25se11567 0.1 100217
21:00+24nnw115993 0.1 100311
30 june, thu
thu3000:00+21nnw11645 0.0 100511
03:00+18nne117511 0.0 100611
06:00+19n1171100 0.0 100614
09:00+26ese12495 0.0 1006468
12:00+32se22345 0.0 10051457
15:00+34sse222772 0.0 10043287
18:00+30s253895 0.1 1004790
21:00+20nnw2280100 0.3 100661
1 july, fri
fri100:00+20nnw11787 0.0 100622
03:00+16nne11946 0.3 100611
06:00+17se009121 0.1 100715
09:00+24sse016377 0.1 1006346
12:00+31ssw123933 0.0 10051098
15:00+35s122569 0.0 10023652
18:00+26n114696 0.0 100234
21:00+25e1149100 0.1 100111
2 july, sat
sat200:00+19se118597 1.1 100311
03:00+18s119187 1.7 100311
06:00+17ese11958 0.6 100419
09:00+22s117330 0.6 1004331
12:00+30sse22393 0.0 10011125
15:00+33se223015 0.0 9992632
18:00+33sse23285 0.0 9982806
21:00+22w11710 0.0 100012
3 july, sun
sun300:00+18wsw118565 0.0 100211
03:00+17ene009230 0.0 100211
06:00+18n11883 0.0 100230
09:00+26e1156100 0.0 1001480
12:00+31se22355 0.0 10001405
15:00+35ese132680 0.0 9983315
18:00+33e342898 0.0 9962351
21:00+25e24533 0.0 99861